Погода в Кондопоге

Погода в Кондопоге : погода сейчас, прогноз погоды и архив. Всё, что Вы хотите узнать о погоде в Кондопоге!

Поиск расширенной информации на нашем сайте:

Другие новости

Новости СМИ2

Главная страница сайта

Новости сайта

03.07.2017

Напоминаем, что на нашем специализированном сайте Метеоцентр.Азия вы можете получить высокодетализированные автоматические прогнозы погоды по пунктам России, СНГ и мира в авиационном формате (включающие направление и скорость ветра, видимость, явления погоды, количество и форму облачности, нижнюю и верхнюю границу облачности).


Погода в Кондопоге - сегодня

Время (UTC), дата Ветер
(°,м/с) 
Видим.   Явления Облачность Т
(°С)
Тd
(°С)
f(%) Тe
(°С)
Pmin
(гПа)
dP
(гПа)
Po
(мм)
O2
(г/м3)
Тmin Tmax R s Состояние
почвы
09 17.06.18 150 (ЮВ) н/о    н/о 
+24.1 +7.5 35 +24  1018.8  -0.4  761  280           
12 17.06.18 170 (Ю) н/о    н/о 
+22.2 +11.4 50 +25  1018.4  -0.5  760  281           
15 17.06.18 150 (ЮВ) н/о    н/о 
+23.9 +7.9 36 +24  1017.4  -1  760  280           
21 17.06.18 140 (ЮВ) н/о    н/о 
+15 +10.3 73 +17  1017.5  0.2  760  288           
00 18.06.18 тихо ()   н/о    н/о 
+14 +10.7 80 +16  1017.2  -0.3  759  289           
03 18.06.18 150 (ЮВ) н/о    н/о 
+14.9 +12.8 87 +21  1016.8  -0.4  759  288  +13.9         
09 18.06.18 170 (Ю) н/о    н/о 
+18 +13.8 76 +25  1014.8  -0.9  758  284           
12 18.06.18 150 (ЮВ) н/о    н/о 
+19.4 +13.1 67 +25  1013.2  -1.6  757  282           
15 18.06.18 150 (ЮВ) н/о    н/о 
+21.5 +13 58 +27  1010.9  -2.3  755  279           
21 18.06.18 200 (Ю) н/о    н/о 
+13.8 +12.8 94 +20  1009.6  -0.5  754  287           
00 19.06.18 250 (З) н/о    н/о 
+17.2 +13.6 79 +23  1009.1  -0.5  753  283           
03 19.06.18 150 (ЮВ) н/о    н/о 
+15.7 +14.6 93 +25  1007.3  -1.8  752  284  +13.7         
09 19.06.18 240 (ЮЗ) н/о    н/о 
+19.7 +8.1 47 +20  1004.7  -1.7  750  281           
12 19.06.18 230 (ЮЗ) н/о    н/о 
+19 +7.9 48 +19  1003.1  -1.6  749  281           
15 19.06.18 220 (ЮЗ) н/о    н/о 
+17.3 +8.3 55 +18  1001  -2.1  747  282           
21 19.06.18 200 (Ю) 4{10}  н/о    н/о 
+12.3 +10.4 88 +14  994.2  -3.2  742  284           
00 20.06.18 240 (ЮЗ) н/о    н/о 
+11.7 +10.1 90 +13  993.8  -0.5  742  285           
09 20.06.18 280 (З) 7-14{14}  н/о    н/о 
+15.4 +5.7 52 +15  995  0.4  743  282           
21 20.06.18 290 (З) н/о    н/о 
+13.5 +4.9 56 +14  1000.6  0.9  747  286           
00 21.06.18 310 (СЗ) н/о    н/о 
+10.2 +4.6 68 +11  1001.7  1.1  748  290           
03 21.06.18 290 (З) н/о    н/о 
+13.1 +5.6 60 +14  1002.4  0.8  748  287  +9.9         
09 21.06.18 270 (З) н/о    н/о 
+19.6 +3.6 35 +20  1003.9  0.7  750  281           
12 21.06.18 250 (З) н/о    н/о 
+20.6 +2.8 31 +21  1004.3  0.4  750  281           
15 21.06.18 270 (З) н/о    н/о 
+21 +2.8 30 +21  1004.7  0.4  750  280           
21 21.06.18 130 (ЮВ) н/о    н/о 
+9.9 +5.8 76 +11  1005.7  0.3  751  291           
Время (UTC), дата Ветер
(°,м/с) 
Видим.   Явления Облачность Т
(°С)
Тd
(°С)
f(%) Тe
(°С)
Pmin
(гПа)
dP
(гПа)
Po
(мм)
O2
(г/м3)
Тmin Tmax R s Состояние
почвы

Для получения пояснительной информации подведите курсор к названию столбца.

ПОГОДА в Кондопоге - архив

Всё, что Вы хотите узнать о погоде в Кондопоге - удобно и подробно!

Выберите нужную дату (начиная с 1 января 2015* года) и нажмите кнопку "Найти".
Будут отображены архивные сводки погоды по пункту Кондопога, начиная с указанной даты.


Отображать данные в формате CSV (для использования в таблицах Excel)


Внимание! Наш архив погоды предназначен исключительно для личного некоммерческого использования в познавательных целях. Если Вам необходимы официальные справки о состоянии погоды (для производственных, юридических, коммерческих и т.п. целей), обращайтесь в органы Росгидромета.

*Примечание: данная дата относится к архиву по метеостанциям СССР (Россия, СНГ, Балтия).
Архив по метеостанциям Зарубежной Европы и Азии (кроме Китая) хранится 10 дней, по другим регионам земного шара (Китай, Африка, Америка, Австралия, Океания) - 1 день.

Кондопога - район местоположения метеостанции


Название, широта, долгота, высота метеостанции:
Кондопога 62.2°ш. 34.3°д. 38 м над ур. моря [Российская Федерация]

Дополнительная информация

В oтличие oт бoльшинства пoгoдных сайтoв мы публикуем пoдрoбную метеoинфoрмацию в детальнoм прoфессиoнальнoм фoрмате.

Характеристики температуры и влажнoсти вoздуха измеряются на высoте 2 м в тени вдали oт зданий и деревьев.
Скoрoсть ветра измеряется на высoте 10 м (на урoвне рoста челoвека скoрoсть ветра ниже в 1.5-2 раза). Если метеoстанция нахoдится в гoрoде или в лесу, тo скoрoсть ветра занижена на 2-4 м/с пo сравнению с oткрытым местoм. Скoрoсть ветра над акватoриями крупных рек и oзёр, а также на вершинах хoлмoв на 2-5 м/с выше, чем в oбычных услoвиях.
Атмoсфернoе давление в разных тoчках местнoсти мoжет значительнo oтличаться oт давления на метеoстанции, в зависимoсти oт услoвий рельефа (при пoдъёме на 10 м давление пoнижается примернo на 1 мм рт.ст.).